* Astronomy

Members Login
Post Info TOPIC: Asteroid 2008 UW5


L

Posts: 131433
Date:
Asteroid 2008 UW5
Permalink  
 


Orbital elements:
2008 UW5 Earth MOID = 0.1458 AU
Epoch 2010 July 23.0 TT = JDT 2455400.5 MPC
M 180.39273 (2000.0) P Q
n 0.39742642 Peri. 204.25119 -0.78613767 -0.60090958
a 1.8321663 Node 298.03089 +0.59043874 -0.66105836
e 0.3892835 Incl. 9.42533 +0.18267363 -0.44934344
P 2.48 H 18.1 G 0.15 U 3

MPEC 2010 - P35


__________________
Page 1 of 1  sorted by
 
Quick Reply

Please log in to post quick replies.



Create your own FREE Forum
Report Abuse
Powered by ActiveBoard